Location: Stendal
(52.5994°N, 11.8400°E)
Time: 20:22:47
(UTC+01:00)

COSMOS 2251 DEB - Visible Passes

Search period start: 16 January 2022 00:00
Search period end: 26 January 2022 00:00
Orbit: 662 x 776 km, 74.1° (Epoch: 16 January)

Date Brightness Start Highest point End Pass type
(mag) Time Alt. Az. Time Alt. Az. Time Alt. Az.
16 Jan ? 07:15:25 10° S 07:20:18 39° ESE 07:25:13 10° NE visible
16 Jan ? 17:30:48 10° NNW 17:35:54 60° WSW 17:40:48 10° S visible
17 Jan ? 06:25:15 10° SE 06:29:02 20° E 06:32:50 10° NE visible
17 Jan ? 18:20:56 10° NW 18:24:43 21° W 18:28:23 10° SW visible
18 Jan ? 07:12:41 10° S 07:17:51 56° ESE 07:23:02 10° NNE visible
18 Jan ? 17:28:36 10° NW 17:33:26 42° WSW 17:38:05 10° S visible
19 Jan ? 06:21:59 10° SSE 06:26:27 28° E 06:30:55 10° NE visible
19 Jan ? 18:19:22 10° WNW 18:22:03 14° W 18:24:42 10° SW visible
20 Jan ? 05:32:35 10° ESE 05:35:18 14° E 05:38:00 10° ENE visible
20 Jan ? 07:10:09 10° SSW 07:15:27 78° ESE 07:20:45 10° NNE visible
20 Jan ? 17:26:31 10° NW 17:30:53 29° W 17:35:07 10° SSW visible
21 Jan ? 06:19:02 10° S 06:23:55 40° ESE 06:28:50 10° NE visible
22 Jan ? 05:28:51 10° SE 05:32:39 20° E 05:36:26 10° NE visible
22 Jan ? 07:07:46 10° SSW 07:13:05 77° WNW 07:18:23 10° NNE visible
22 Jan ? 17:24:35 10° NW 17:28:16 21° W 17:31:52 10° SW visible
23 Jan ? 06:16:17 10° S 06:21:27 56° ESE 06:26:37 10° NNE visible
24 Jan ? 05:25:34 10° SSE 05:30:02 28° E 05:34:30 10° NE visible
24 Jan ? 07:05:34 10° SW 07:10:46 56° WNW 07:15:58 10° NNE visible
24 Jan ? 17:23:01 10° WNW 17:25:35 14° W 17:28:06 10° SW visible
25 Jan ? 04:36:08 10° SE 04:38:51 14° E 04:41:34 10° ENE visible
25 Jan ? 06:13:43 10° SSW 06:19:01 78° ESE 06:24:17 10° NNE visible
